Powrót do katalogu

COSMOS 970 DEB

AktywnyLEO
NORAD 65004·DEBRIS·🇷🇺 Russia

Wystrzelony Dec 21, 1977 z Baikonur Cosmodrome

Loading…

Następne Przeloty (najbliższe 24 godziny)

TLE

Starzejące sięSource: Space-Track

Epoka: Sep 9, 2026, 01:04 UTC

1 65004U 77121DR  26252.04474958  .00000339  00000-0  30963-3 0  9990
2 65004  65.9020  34.4175 0109222  50.3009 310.7631 13.93024685219695

Śledź COSMOS 970 DEB w czasie rzeczywistym z AllMySat

Download on the App Store